Starlink 30948

operational
NORAD ID: 58525 Int'l Des: 2023-191 Owner: SPXS Country: US Constellation: starlink
LEOCIRCULAR

关于 Starlink 30948

正在加载描述...

实时位置

正在加载3D地球...

即将过境

高度历史

Altitude vs Time

uPlot chart will show altitude changes over time

两行轨道根数

1 58525U 23191T 25257.53125585 .00000103 00000-0 22675-4 0 9996
2 58525 43.0050 343.0837 0001615 274.0664 85.9994 15.02546620 98944
Epoch: Sep 14, 2025 • Age: 23 hours

当前状态

高度 563.3 km
速度 7.58 km/s
星下点 42.95°N, 92.47°W
发射日期 Dec 7, 2023
运行时间 1.7 years
类型 internet

技术详情

分类 Payload
质量 730.00 kg
干质量 700.00 kg
总质量 730.00 kg
长度 0.30 m
直径 4.10 m
跨度 29.00 m
形状 Box + pan
制造商 SPXS
平台类型 Starlink V2M
阶段状态 In Orbit
所有者/国家 SPXS/US

大型星座

Loading constellations...